{"data":{"norad_id":68734,"epoch":"2026-09-19T10:09:28.161504Z","epoch_age_seconds":134366,"freshness":"FRESH","line1":"1 68734U 26082G   26262.42324261  .00003684  00000+0  11636-3 0  9998","line2":"2 68734  97.2845 124.6392 0004762  57.7060 302.4643 15.33447329 24140","mean_motion":15.33447329,"eccentricity":0.0004762,"inclination_deg":97.2845,"raan_deg":124.6392,"arg_perigee_deg":57.706,"mean_anomaly_deg":302.4643,"bstar":0.00011636,"rev_number":2414,"period_min":93.906062032079,"perigee_km":462.27728782221,"apogee_km":468.79520222077,"semimajor_km":6843.6732450215,"source":"CELESTRAK","updated_at":"2026-09-20T09:00:43.991213Z"}}